Torna al catalogo

FENGYUN 1C DEB

AttivoPO
NORAD 37908·DEBRIS·🇨🇳 China

Lanciato May 10, 1999 da Taiyuan Satellite Launch Center

Loading…

Prossimi Passaggi (prossime 24 ore)

TLE

In scadenzaSource: Space-Track

Epoca: Sep 10, 2026, 08:53 UTC

1 37908U 99025ENH 26253.37082822  .00000779  00000-0  26913-3 0  9999
2 37908  99.1204 306.8816 0074730  84.2662 276.7037 14.37293966679627

Traccia FENGYUN 1C DEB in tempo reale con AllMySat

Download on the App Store